Data supplied by UK-AIR on 30/3/2023
All Data GMT hour ending 
Status: R =Ratified P=Provisional,P*=As supplied
,,Dumbarton Roadside,,,,,,,,,,,,,,,,,,,,,,,
Date,time,"Nitric oxide",status,unit,"Nitrogen dioxide",status,unit,"Nitrogen oxides as nitrogen dioxide",status,unit
 
01-01-2022,01:00,1.08031,R,ugm-3,4.19280,R,ugm-3,5.84925,R,ugm-3
01-01-2022,02:00,0.76257,R,ugm-3,3.99758,R,ugm-3,5.16684,R,ugm-3
01-01-2022,03:00,0.60370,R,ugm-3,3.75374,R,ugm-3,4.67940,R,ugm-3
01-01-2022,04:00,1.20741,R,ugm-3,4.63159,R,ugm-3,6.48292,R,ugm-3
01-01-2022,05:00,1.39805,R,ugm-3,4.87546,R,ugm-3,7.01911,R,ugm-3
01-01-2022,06:00,0.85789,R,ugm-3,3.65645,R,ugm-3,4.97187,R,ugm-3
01-01-2022,07:00,0.38129,R,ugm-3,1.95005,R,ugm-3,2.53468,R,ugm-3
01-01-2022,08:00,0.82612,R,ugm-3,1.46295,R,ugm-3,2.72965,R,ugm-3
01-01-2022,09:00,1.04854,R,ugm-3,1.31689,R,ugm-3,2.92463,R,ugm-3
01-01-2022,10:00,0.79435,R,ugm-3,1.46293,R,ugm-3,2.68091,R,ugm-3
01-01-2022,11:00,0.82612,R,ugm-3,1.12174,R,ugm-3,2.38845,R,ugm-3
01-01-2022,12:00,0.50838,R,ugm-3,1.21899,R,ugm-3,1.99850,R,ugm-3
01-01-2022,13:00,0.50838,R,ugm-3,1.51145,R,ugm-3,2.29096,R,ugm-3
01-01-2022,14:00,0.92144,R,ugm-3,1.36554,R,ugm-3,2.77840,R,ugm-3
01-01-2022,15:00,0.88967,R,ugm-3,1.65798,R,ugm-3,3.02211,R,ugm-3
01-01-2022,16:00,0.79435,R,ugm-3,1.80413,R,ugm-3,3.02211,R,ugm-3
01-01-2022,17:00,1.27095,R,ugm-3,1.12209,R,ugm-3,3.07086,R,ugm-3
01-01-2022,18:00,0.79435,R,ugm-3,1.46293,R,ugm-3,2.68091,R,ugm-3
01-01-2022,19:00,0.88967,R,ugm-3,1.51175,R,ugm-3,2.87588,R,ugm-3
01-01-2022,20:00,0.66725,R,ugm-3,1.21911,R,ugm-3,2.24221,R,ugm-3
01-01-2022,21:00,0.88967,R,ugm-3,2.63285,R,ugm-3,3.99699,R,ugm-3
01-01-2022,22:00,1.90643,R,ugm-3,6.77686,R,ugm-3,9.70001,R,ugm-3
01-01-2022,23:00,1.77934,R,ugm-3,6.43555,R,ugm-3,9.16383,R,ugm-3
01-01-2022,24:00,1.39805,R,ugm-3,1.02470,R,ugm-3,3.16835,R,ugm-3
02-01-2022,01:00,0.85662,R,ugm-3,0.87774,R,ugm-3,2.19120,R,ugm-3
02-01-2022,02:00,1.01525,R,ugm-3,1.36491,R,ugm-3,2.92160,R,ugm-3
02-01-2022,03:00,0.60280,R,ugm-3,2.04601,R,ugm-3,2.97030,R,ugm-3
02-01-2022,04:00,0.63453,R,ugm-3,1.94867,R,ugm-3,2.92160,R,ugm-3
02-01-2022,05:00,1.26906,R,ugm-3,1.26790,R,ugm-3,3.21377,R,ugm-3
02-01-2022,06:00,1.20561,R,ugm-3,1.51127,R,ugm-3,3.35984,R,ugm-3
02-01-2022,07:00,0.47590,R,ugm-3,1.85105,R,ugm-3,2.58075,R,ugm-3
02-01-2022,08:00,1.07870,R,ugm-3,1.36500,R,ugm-3,3.01899,R,ugm-3
02-01-2022,09:00,0.88834,R,ugm-3,1.26734,R,ugm-3,2.62944,R,ugm-3
02-01-2022,10:00,0.92007,R,ugm-3,0.82914,R,ugm-3,2.23990,R,ugm-3
02-01-2022,11:00,0.98352,R,ugm-3,1.55964,R,ugm-3,3.06768,R,ugm-3
02-01-2022,12:00,1.11043,R,ugm-3,1.60852,R,ugm-3,3.31115,R,ugm-3
02-01-2022,13:00,1.07870,R,ugm-3,1.55978,R,ugm-3,3.21377,R,ugm-3
02-01-2022,14:00,1.23734,R,ugm-3,1.85217,R,ugm-3,3.74939,R,ugm-3
02-01-2022,15:00,1.33251,R,ugm-3,2.14447,R,ugm-3,4.18763,R,ugm-3
02-01-2022,16:00,1.14216,R,ugm-3,2.48505,R,ugm-3,4.23633,R,ugm-3
02-01-2022,17:00,1.36424,R,ugm-3,2.29060,R,ugm-3,4.38241,R,ugm-3
02-01-2022,18:00,0.63453,R,ugm-3,1.89998,R,ugm-3,2.87291,R,ugm-3
02-01-2022,19:00,0.69798,R,ugm-3,1.70530,R,ugm-3,2.77552,R,ugm-3
02-01-2022,20:00,1.01525,R,ugm-3,2.04662,R,ugm-3,3.60331,R,ugm-3
02-01-2022,21:00,0.85662,R,ugm-3,1.26729,R,ugm-3,2.58075,R,ugm-3
02-01-2022,22:00,1.11043,R,ugm-3,1.12158,R,ugm-3,2.82422,R,ugm-3
02-01-2022,23:00,1.11043,R,ugm-3,0.19641,R,ugm-3,1.89904,R,ugm-3
02-01-2022,24:00,1.20561,R,ugm-3,0.92695,R,ugm-3,2.77552,R,ugm-3
03-01-2022,01:00,1.14045,R,ugm-3,0.68348,R,ugm-3,2.43215,R,ugm-3
03-01-2022,02:00,0.91870,R,ugm-3,0.53707,R,ugm-3,1.94572,R,ugm-3
03-01-2022,03:00,0.50687,R,ugm-3,0.39025,R,ugm-3,1.16743,R,ugm-3
03-01-2022,04:00,0.60191,R,ugm-3,0.63367,R,ugm-3,1.55658,R,ugm-3
03-01-2022,05:00,0.28511,R,ugm-3,0.77891,R,ugm-3,1.21608,R,ugm-3
03-01-2022,06:00,0.98206,R,ugm-3,0.19671,R,ugm-3,1.70251,R,ugm-3
03-01-2022,07:00,0.79198,R,ugm-3,0.82865,R,ugm-3,2.04301,R,ugm-3
03-01-2022,08:00,0.98206,R,ugm-3,1.02364,R,ugm-3,2.52944,R,ugm-3
03-01-2022,09:00,1.33053,R,ugm-3,1.70540,R,ugm-3,3.74551,R,ugm-3
03-01-2022,10:00,2.62938,R,ugm-3,3.94580,R,ugm-3,7.97745,R,ugm-3
03-01-2022,11:00,9.56712,R,ugm-3,21.71559,R,ugm-3,36.38498,R,ugm-3
03-01-2022,12:00,13.93886,R,ugm-3,28.43784,R,ugm-3,49.81045,R,ugm-3
03-01-2022,13:00,10.77093,R,ugm-3,21.81550,R,ugm-3,38.33070,R,ugm-3
03-01-2022,14:00,13.68542,R,ugm-3,16.03332,R,ugm-3,37.01734,R,ugm-3
03-01-2022,15:00,16.02969,R,ugm-3,22.36201,R,ugm-3,46.94052,R,ugm-3
03-01-2022,16:00,18.75410,R,ugm-3,32.77754,R,ugm-3,61.53342,R,ugm-3
03-01-2022,17:00,18.88082,R,ugm-3,31.26988,R,ugm-3,60.22006,R,ugm-3
03-01-2022,18:00,17.70868,R,ugm-3,32.96984,R,ugm-3,60.12277,R,ugm-3
03-01-2022,19:00,28.66969,R,ugm-3,48.17029,R,ugm-3,92.12988,R,ugm-3
03-01-2022,20:00,22.42889,R,ugm-3,53.16695,R,ugm-3,87.55744,R,ugm-3
03-01-2022,21:00,16.98006,R,ugm-3,39.43777,R,ugm-3,65.47350,R,ugm-3
03-01-2022,22:00,27.65596,R,ugm-3,46.27101,R,ugm-3,88.67623,R,ugm-3
03-01-2022,23:00,16.31480,R,ugm-3,35.15574,R,ugm-3,60.17142,R,ugm-3
03-01-2022,24:00,4.94196,R,ugm-3,23.84583,R,ugm-3,31.42339,R,ugm-3
04-01-2022,01:00,4.14378,R,ugm-3,14.34676,R,ugm-3,20.70047,R,ugm-3
04-01-2022,02:00,3.00503,R,ugm-3,15.46111,R,ugm-3,20.06876,R,ugm-3
04-01-2022,03:00,1.10712,R,ugm-3,6.36882,R,ugm-3,8.06638,R,ugm-3
04-01-2022,04:00,0.63264,R,ugm-3,2.86879,R,ugm-3,3.83882,R,ugm-3
04-01-2022,05:00,1.61323,R,ugm-3,4.08643,R,ugm-3,6.56001,R,ugm-3
04-01-2022,06:00,2.59382,R,ugm-3,6.71325,R,ugm-3,10.69038,R,ugm-3
04-01-2022,07:00,4.58663,R,ugm-3,7.49647,R,ugm-3,14.52920,R,ugm-3
04-01-2022,08:00,4.46010,R,ugm-3,9.14826,R,ugm-3,15.98698,R,ugm-3
04-01-2022,09:00,6.04169,R,ugm-3,12.26274,R,ugm-3,21.52654,R,ugm-3
04-01-2022,10:00,8.82530,R,ugm-3,15.76942,R,ugm-3,29.30136,R,ugm-3
04-01-2022,11:00,12.08339,R,ugm-3,16.11895,R,ugm-3,34.64655,R,ugm-3
04-01-2022,12:00,12.11502,R,ugm-3,15.63312,R,ugm-3,34.20922,R,ugm-3
04-01-2022,13:00,12.74766,R,ugm-3,16.70398,R,ugm-3,36.25011,R,ugm-3
04-01-2022,14:00,16.44859,R,ugm-3,20.84501,R,ugm-3,46.06582,R,ugm-3
04-01-2022,15:00,19.76994,R,ugm-3,22.84687,R,ugm-3,53.16035,R,ugm-3
04-01-2022,16:00,12.65276,R,ugm-3,19.91082,R,ugm-3,39.31145,R,ugm-3
04-01-2022,17:00,10.62832,R,ugm-3,16.16336,R,ugm-3,32.45989,R,ugm-3
04-01-2022,18:00,13.12724,R,ugm-3,19.76641,R,ugm-3,39.89456,R,ugm-3
04-01-2022,19:00,7.46513,R,ugm-3,12.89854,R,ugm-3,24.34491,R,ugm-3
04-01-2022,20:00,3.82746,R,ugm-3,5.01606,R,ugm-3,10.88475,R,ugm-3
04-01-2022,21:00,3.44788,R,ugm-3,3.80015,R,ugm-3,9.08683,R,ugm-3
04-01-2022,22:00,2.94177,R,ugm-3,2.63247,R,ugm-3,7.14312,R,ugm-3
04-01-2022,23:00,2.97340,R,ugm-3,5.79108,R,ugm-3,10.35023,R,ugm-3
04-01-2022,24:00,2.27750,R,ugm-3,3.94256,R,ugm-3,7.43467,R,ugm-3
05-01-2022,01:00,1.42131,R,ugm-3,2.96618,R,ugm-3,5.14548,R,ugm-3
05-01-2022,02:00,0.94754,R,ugm-3,1.84800,R,ugm-3,3.30087,R,ugm-3
05-01-2022,03:00,0.82120,R,ugm-3,2.43006,R,ugm-3,3.68921,R,ugm-3
05-01-2022,04:00,1.04229,R,ugm-3,2.67356,R,ugm-3,4.27172,R,ugm-3
05-01-2022,05:00,1.61081,R,ugm-3,3.25811,R,ugm-3,5.72799,R,ugm-3
05-01-2022,06:00,3.15846,R,ugm-3,5.44806,R,ugm-3,10.29096,R,ugm-3
05-01-2022,07:00,7.83298,R,ugm-3,15.36744,R,ugm-3,27.37784,R,ugm-3
05-01-2022,08:00,12.57066,R,ugm-3,24.99580,R,ugm-3,44.27054,R,ugm-3
05-01-2022,09:00,21.22484,R,ugm-3,41.28848,R,ugm-3,73.83278,R,ugm-3
05-01-2022,10:00,34.33244,R,ugm-3,47.93723,R,ugm-3,100.57957,R,ugm-3
05-01-2022,11:00,39.03854,R,ugm-3,54.94419,R,ugm-3,114.80245,R,ugm-3
05-01-2022,12:00,18.88758,R,ugm-3,30.94060,R,ugm-3,59.90115,R,ugm-3
05-01-2022,13:00,16.77141,R,ugm-3,24.13710,R,ugm-3,49.85290,R,ugm-3
05-01-2022,14:00,18.66649,R,ugm-3,28.36707,R,ugm-3,56.98862,R,ugm-3
05-01-2022,15:00,21.57227,R,ugm-3,33.13463,R,ugm-3,66.21165,R,ugm-3
05-01-2022,16:00,42.35493,R,ugm-3,63.59660,R,ugm-3,128.53991,R,ugm-3
05-01-2022,17:00,82.53051,R,ugm-3,84.61382,R,ugm-3,211.15884,R,ugm-3
05-01-2022,18:00,77.09797,R,ugm-3,76.43924,R,ugm-3,194.65448,R,ugm-3
05-01-2022,19:00,53.75696,R,ugm-3,66.21022,R,ugm-3,148.63641,R,ugm-3
05-01-2022,20:00,49.68255,R,ugm-3,63.62287,R,ugm-3,139.80172,R,ugm-3
05-01-2022,21:00,27.66810,R,ugm-3,55.77718,R,ugm-3,98.20100,R,ugm-3
05-01-2022,22:00,18.09797,R,ugm-3,55.74287,R,ugm-3,83.49269,R,ugm-3
05-01-2022,23:00,9.31745,R,ugm-3,46.00293,R,ugm-3,60.28949,R,ugm-3
05-01-2022,24:00,3.69540,R,ugm-3,49.18656,R,ugm-3,54.85276,R,ugm-3
06-01-2022,01:00,8.57814,R,ugm-3,57.54821,R,ugm-3,70.70117,R,ugm-3
06-01-2022,02:00,4.82520,R,ugm-3,52.92537,R,ugm-3,60.32391,R,ugm-3
06-01-2022,03:00,1.73455,R,ugm-3,29.63599,R,ugm-3,32.29560,R,ugm-3
06-01-2022,04:00,0.75689,R,ugm-3,13.58098,R,ugm-3,14.74153,R,ugm-3
06-01-2022,05:00,0.72536,R,ugm-3,9.74998,R,ugm-3,10.86218,R,ugm-3
06-01-2022,06:00,1.22995,R,ugm-3,8.29740,R,ugm-3,10.18330,R,ugm-3
06-01-2022,07:00,1.10380,R,ugm-3,7.71495,R,ugm-3,9.40743,R,ugm-3
06-01-2022,08:00,1.22995,R,ugm-3,8.49136,R,ugm-3,10.37726,R,ugm-3
06-01-2022,09:00,0.75689,R,ugm-3,8.34386,R,ugm-3,9.50441,R,ugm-3
06-01-2022,10:00,0.91458,R,ugm-3,9.16889,R,ugm-3,10.57123,R,ugm-3
06-01-2022,11:00,0.97766,R,ugm-3,3.88355,R,ugm-3,5.38260,R,ugm-3
06-01-2022,12:00,1.41918,R,ugm-3,4.70981,R,ugm-3,6.88585,R,ugm-3
06-01-2022,13:00,1.79762,R,ugm-3,6.16619,R,ugm-3,8.92251,R,ugm-3
06-01-2022,14:00,4.57290,R,ugm-3,13.30641,R,ugm-3,20.31810,R,ugm-3
06-01-2022,15:00,1.60840,R,ugm-3,3.01340,R,ugm-3,5.47958,R,ugm-3
06-01-2022,16:00,1.22995,R,ugm-3,4.27257,R,ugm-3,6.15847,R,ugm-3
06-01-2022,17:00,1.13534,R,ugm-3,3.54478,R,ugm-3,5.28562,R,ugm-3
06-01-2022,18:00,2.71221,R,ugm-3,4.56988,R,ugm-3,8.72854,R,ugm-3
06-01-2022,19:00,6.05516,R,ugm-3,15.25245,R,ugm-3,24.53689,R,ugm-3
06-01-2022,20:00,3.18526,R,ugm-3,5.88120,R,ugm-3,10.76520,R,ugm-3
06-01-2022,21:00,2.33376,R,ugm-3,5.00469,R,ugm-3,8.58306,R,ugm-3
06-01-2022,22:00,1.04073,R,ugm-3,1.84716,R,ugm-3,3.44293,R,ugm-3
06-01-2022,23:00,1.26149,R,ugm-3,1.65414,R,ugm-3,3.58840,R,ugm-3
06-01-2022,24:00,1.04073,R,ugm-3,2.04113,R,ugm-3,3.63689,R,ugm-3
07-01-2022,01:00,0.59831,R,ugm-3,0.48741,R,ugm-3,1.40480,R,ugm-3
07-01-2022,02:00,0.85023,R,ugm-3,0.58555,R,ugm-3,1.88922,R,ugm-3
07-01-2022,03:00,0.88172,R,ugm-3,1.11857,R,ugm-3,2.47052,R,ugm-3
07-01-2022,04:00,0.69278,R,ugm-3,0.39100,R,ugm-3,1.45325,R,ugm-3
07-01-2022,05:00,0.66129,R,ugm-3,0.82682,R,ugm-3,1.84078,R,ugm-3
07-01-2022,06:00,1.76344,R,ugm-3,2.14025,R,ugm-3,4.84415,R,ugm-3
07-01-2022,07:00,1.07066,R,ugm-3,3.44471,R,ugm-3,5.08636,R,ugm-3
07-01-2022,08:00,1.70046,R,ugm-3,4.85266,R,ugm-3,7.45999,R,ugm-3
07-01-2022,09:00,34.16659,R,ugm-3,45.60913,R,ugm-3,97.99717,R,ugm-3
07-01-2022,10:00,16.56371,R,ugm-3,41.69415,R,ugm-3,67.09149,R,ugm-3
07-01-2022,11:00,4.53455,R,ugm-3,9.66255,R,ugm-3,16.61544,R,ugm-3
07-01-2022,12:00,15.74497,R,ugm-3,23.81514,R,ugm-3,47.95709,R,ugm-3
07-01-2022,13:00,21.97998,R,ugm-3,34.98789,R,ugm-3,68.69006,R,ugm-3
07-01-2022,14:00,23.93236,R,ugm-3,32.62402,R,ugm-3,69.31980,R,ugm-3
07-01-2022,15:00,6.64438,R,ugm-3,14.12973,R,ugm-3,24.31764,R,ugm-3
07-01-2022,16:00,14.48538,R,ugm-3,26.13403,R,ugm-3,48.34462,R,ugm-3
07-01-2022,17:00,26.19964,R,ugm-3,47.31315,R,ugm-3,87.48536,R,ugm-3
07-01-2022,18:00,47.23492,R,ugm-3,72.02671,R,ugm-3,144.45257,R,ugm-3
07-01-2022,19:00,20.21655,R,ugm-3,53.72593,R,ugm-3,84.72420,R,ugm-3
07-01-2022,20:00,8.81719,R,ugm-3,37.44097,R,ugm-3,50.96047,R,ugm-3
07-01-2022,21:00,15.83944,R,ugm-3,40.86702,R,ugm-3,65.15383,R,ugm-3
07-01-2022,22:00,6.17203,R,ugm-3,29.77397,R,ugm-3,39.23762,R,ugm-3
07-01-2022,23:00,1.22811,R,ugm-3,14.24795,R,ugm-3,16.13102,R,ugm-3
07-01-2022,24:00,1.51152,R,ugm-3,26.55351,R,ugm-3,28.87114,R,ugm-3
08-01-2022,01:00,1.16338,R,ugm-3,13.45939,R,ugm-3,15.24321,R,ugm-3
08-01-2022,02:00,0.97472,R,ugm-3,9.15150,R,ugm-3,10.64605,R,ugm-3
08-01-2022,03:00,0.88039,R,ugm-3,6.34427,R,ugm-3,7.69419,R,ugm-3
08-01-2022,04:00,0.75462,R,ugm-3,3.87561,R,ugm-3,5.03268,R,ugm-3
08-01-2022,05:00,0.72318,R,ugm-3,3.48830,R,ugm-3,4.59716,R,ugm-3
08-01-2022,06:00,1.06905,R,ugm-3,3.68384,R,ugm-3,5.32303,R,ugm-3
08-01-2022,07:00,0.81751,R,ugm-3,3.34366,R,ugm-3,4.59716,R,ugm-3
08-01-2022,08:00,2.07521,R,ugm-3,3.10890,R,ugm-3,6.29085,R,ugm-3
08-01-2022,09:00,8.36374,R,ugm-3,32.71183,R,ugm-3,45.53605,R,ugm-3
08-01-2022,10:00,3.39580,R,ugm-3,9.06856,R,ugm-3,14.27538,R,ugm-3
08-01-2022,11:00,2.07521,R,ugm-3,5.62524,R,ugm-3,8.80719,R,ugm-3
08-01-2022,12:00,9.30702,R,ugm-3,16.84494,R,ugm-3,31.11550,R,ugm-3
08-01-2022,13:00,5.59679,R,ugm-3,11.45231,R,ugm-3,20.03393,R,ugm-3
08-01-2022,14:00,7.45190,R,ugm-3,13.25338,R,ugm-3,24.67948,R,ugm-3
08-01-2022,15:00,13.96053,R,ugm-3,31.77601,R,ugm-3,53.18185,R,ugm-3
08-01-2022,16:00,2.07521,R,ugm-3,5.57684,R,ugm-3,8.75880,R,ugm-3
08-01-2022,17:00,6.06843,R,ugm-3,17.79424,R,ugm-3,27.09903,R,ugm-3
08-01-2022,18:00,9.14981,R,ugm-3,27.39330,R,ugm-3,41.42281,R,ugm-3
08-01-2022,19:00,3.04994,R,ugm-3,6.21150,R,ugm-3,10.88800,R,ugm-3
08-01-2022,20:00,5.21948,R,ugm-3,15.03109,R,ugm-3,23.03418,R,ugm-3
08-01-2022,21:00,7.07459,R,ugm-3,21.81646,R,ugm-3,32.66401,R,ugm-3
08-01-2022,22:00,4.05610,R,ugm-3,10.76602,R,ugm-3,16.98529,R,ugm-3
08-01-2022,23:00,1.82367,R,ugm-3,4.22046,R,ugm-3,7.01671,R,ugm-3
08-01-2022,24:00,1.66646,R,ugm-3,3.83243,R,ugm-3,6.38763,R,ugm-3
09-01-2022,01:00,1.69535,R,ugm-3,5.66677,R,ugm-3,8.26627,R,ugm-3
09-01-2022,02:00,1.06744,R,ugm-3,5.80776,R,ugm-3,7.44448,R,ugm-3
09-01-2022,03:00,1.25581,R,ugm-3,4.89049,R,ugm-3,6.81605,R,ugm-3
09-01-2022,04:00,1.19302,R,ugm-3,2.42471,R,ugm-3,4.25399,R,ugm-3
09-01-2022,05:00,0.43954,R,ugm-3,1.93646,R,ugm-3,2.61040,R,ugm-3
09-01-2022,06:00,0.72209,R,ugm-3,1.79325,R,ugm-3,2.90045,R,ugm-3
09-01-2022,07:00,1.06744,R,ugm-3,1.55377,R,ugm-3,3.19049,R,ugm-3
09-01-2022,08:00,1.19302,R,ugm-3,0.68445,R,ugm-3,2.51372,R,ugm-3
09-01-2022,09:00,1.56977,R,ugm-3,4.07072,R,ugm-3,6.47766,R,ugm-3
09-01-2022,10:00,4.58372,R,ugm-3,11.92131,R,ugm-3,18.94957,R,ugm-3
09-01-2022,11:00,0.91046,R,ugm-3,3.14801,R,ugm-3,4.54403,R,ugm-3
09-01-2022,12:00,4.67790,R,ugm-3,8.29636,R,ugm-3,15.46904,R,ugm-3
09-01-2022,13:00,9.79534,R,ugm-3,16.98227,R,ugm-3,32.00158,R,ugm-3
09-01-2022,14:00,3.67325,R,ugm-3,10.85196,R,ugm-3,16.48420,R,ugm-3
09-01-2022,15:00,9.13604,R,ugm-3,22.92394,R,ugm-3,36.93233,R,ugm-3
09-01-2022,16:00,25.99532,R,ugm-3,52.37522,R,ugm-3,92.23415,R,ugm-3
09-01-2022,17:00,45.30343,R,ugm-3,60.33062,R,ugm-3,129.79492,R,ugm-3
09-01-2022,18:00,53.87435,R,ugm-3,57.53365,R,ugm-3,140.13983,R,ugm-3
09-01-2022,19:00,72.80572,R,ugm-3,62.63452,R,ugm-3,174.26840,R,ugm-3
09-01-2022,20:00,53.02668,R,ugm-3,57.18981,R,ugm-3,138.49625,R,ugm-3
09-01-2022,21:00,52.24179,R,ugm-3,55.39616,R,ugm-3,135.49912,R,ugm-3
09-01-2022,22:00,11.74185,R,ugm-3,33.81737,R,ugm-3,51.82128,R,ugm-3
09-01-2022,23:00,7.66046,R,ugm-3,23.49454,R,ugm-3,35.24041,R,ugm-3
09-01-2022,24:00,2.76279,R,ugm-3,11.81291,R,ugm-3,16.04913,R,ugm-3
10-01-2022,01:00,2.53919,R,ugm-3,10.64204,R,ugm-3,14.53540,R,ugm-3
10-01-2022,02:00,2.69593,R,ugm-3,13.68545,R,ugm-3,17.81915,R,ugm-3
10-01-2022,03:00,3.82446,R,ugm-3,15.14223,R,ugm-3,21.00631,R,ugm-3
10-01-2022,04:00,1.56740,R,ugm-3,7.68938,R,ugm-3,10.09269,R,ugm-3
10-01-2022,05:00,2.16301,R,ugm-3,7.40389,R,ugm-3,10.72046,R,ugm-3
10-01-2022,06:00,5.51725,R,ugm-3,12.30520,R,ugm-3,20.76486,R,ugm-3
10-01-2022,07:00,9.43575,R,ugm-3,24.01949,R,ugm-3,38.48743,R,ugm-3
10-01-2022,08:00,26.48905,R,ugm-3,32.15761,R,ugm-3,72.77359,R,ugm-3
10-01-2022,09:00,35.64266,R,ugm-3,39.65977,R,ugm-3,94.31110,R,ugm-3
10-01-2022,10:00,37.58624,R,ugm-3,44.40613,R,ugm-3,102.03756,R,ugm-3
10-01-2022,11:00,16.95926,R,ugm-3,32.33093,R,ugm-3,58.33477,R,ugm-3
10-01-2022,12:00,2.13166,R,ugm-3,17.20661,R,ugm-3,20.47512,R,ugm-3
10-01-2022,13:00,2.57054,R,ugm-3,17.40291,R,ugm-3,21.34435,R,ugm-3
10-01-2022,14:00,2.35110,R,ugm-3,11.65479,R,ugm-3,15.25976,R,ugm-3
10-01-2022,15:00,1.44201,R,ugm-3,6.23977,R,ugm-3,8.45082,R,ugm-3
10-01-2022,16:00,1.47336,R,ugm-3,5.70880,R,ugm-3,7.96791,R,ugm-3
10-01-2022,17:00,1.03448,R,ugm-3,4.88472,R,ugm-3,6.47091,R,ugm-3
10-01-2022,18:00,1.31662,R,ugm-3,4.59700,R,ugm-3,6.61578,R,ugm-3
10-01-2022,19:00,9.12227,R,ugm-3,16.29079,R,ugm-3,30.27806,R,ugm-3
10-01-2022,20:00,6.86521,R,ugm-3,19.99301,R,ugm-3,30.51951,R,ugm-3
10-01-2022,21:00,4.07524,R,ugm-3,9.44576,R,ugm-3,15.69437,R,ugm-3
10-01-2022,22:00,3.38558,R,ugm-3,6.83315,R,ugm-3,12.02430,R,ugm-3
10-01-2022,23:00,0.97179,R,ugm-3,4.30479,R,ugm-3,5.79484,R,ugm-3
10-01-2022,24:00,1.88088,R,ugm-3,11.55485,R,ugm-3,14.43882,R,ugm-3
11-01-2022,01:00,3.00486,R,ugm-3,14.20620,R,ugm-3,18.81360,R,ugm-3
11-01-2022,02:00,3.44307,R,ugm-3,9.57861,R,ugm-3,14.85792,R,ugm-3
11-01-2022,03:00,1.31463,R,ugm-3,2.51882,R,ugm-3,4.53456,R,ugm-3
11-01-2022,04:00,0.90772,R,ugm-3,0.97194,R,ugm-3,2.36376,R,ugm-3
11-01-2022,05:00,0.93902,R,ugm-3,0.87571,R,ugm-3,2.31552,R,ugm-3
11-01-2022,06:00,1.78414,R,ugm-3,2.08836,R,ugm-3,4.82400,R,ugm-3
11-01-2022,07:00,15.65034,R,ugm-3,26.70339,R,ugm-3,50.70023,R,ugm-3
11-01-2022,08:00,11.58125,R,ugm-3,34.48625,R,ugm-3,52.24391,R,ugm-3
11-01-2022,09:00,24.32062,R,ugm-3,36.17841,R,ugm-3,73.46951,R,ugm-3
11-01-2022,10:00,31.42587,R,ugm-3,39.27344,R,ugm-3,87.45911,R,ugm-3
11-01-2022,11:00,2.87966,R,ugm-3,7.69282,R,ugm-3,12.10824,R,ugm-3
11-01-2022,12:00,2.09715,R,ugm-3,5.56410,R,ugm-3,8.77968,R,ugm-3
11-01-2022,13:00,2.31625,R,ugm-3,6.04823,R,ugm-3,9.59976,R,ugm-3
11-01-2022,14:00,1.65894,R,ugm-3,4.78881,R,ugm-3,7.33248,R,ugm-3
11-01-2022,15:00,2.15975,R,ugm-3,5.03395,R,ugm-3,8.34552,R,ugm-3
11-01-2022,16:00,2.75446,R,ugm-3,6.48583,R,ugm-3,10.70928,R,ugm-3
11-01-2022,17:00,2.22235,R,ugm-3,5.66157,R,ugm-3,9.06912,R,ugm-3
11-01-2022,18:00,2.91096,R,ugm-3,6.00467,R,ugm-3,10.46808,R,ugm-3
11-01-2022,19:00,2.15975,R,ugm-3,4.02092,R,ugm-3,7.33248,R,ugm-3
11-01-2022,20:00,1.59633,R,ugm-3,2.95520,R,ugm-3,5.40288,R,ugm-3
11-01-2022,21:00,1.22073,R,ugm-3,1.93921,R,ugm-3,3.81096,R,ugm-3
11-01-2022,22:00,1.40853,R,ugm-3,2.61604,R,ugm-3,4.77576,R,ugm-3
11-01-2022,23:00,0.87642,R,ugm-3,2.56362,R,ugm-3,3.90744,R,ugm-3
11-01-2022,24:00,0.84512,R,ugm-3,1.35737,R,ugm-3,2.65320,R,ugm-3
12-01-2022,01:00,1.12512,R,ugm-3,1.11803,R,ugm-3,2.84319,R,ugm-3
12-01-2022,02:00,0.78133,R,ugm-3,0.97050,R,ugm-3,2.16853,R,ugm-3
12-01-2022,03:00,0.90635,R,ugm-3,1.06796,R,ugm-3,2.45767,R,ugm-3
12-01-2022,04:00,0.46880,R,ugm-3,1.16058,R,ugm-3,1.87940,R,ugm-3
12-01-2022,05:00,0.81259,R,ugm-3,0.92258,R,ugm-3,2.16853,R,ugm-3
12-01-2022,06:00,0.34379,R,ugm-3,0.72580,R,ugm-3,1.25293,R,ugm-3
12-01-2022,07:00,0.96885,R,ugm-3,1.64677,R,ugm-3,3.13233,R,ugm-3
12-01-2022,08:00,1.31264,R,ugm-3,2.37257,R,ugm-3,4.38526,R,ugm-3
12-01-2022,09:00,1.46891,R,ugm-3,3.00037,R,ugm-3,5.25267,R,ugm-3
12-01-2022,10:00,2.96907,R,ugm-3,4.50714,R,ugm-3,9.05965,R,ugm-3
12-01-2022,11:00,2.03147,R,ugm-3,4.59546,R,ugm-3,7.71034,R,ugm-3
12-01-2022,12:00,2.03147,R,ugm-3,3.87262,R,ugm-3,6.98750,R,ugm-3
12-01-2022,13:00,1.21888,R,ugm-3,3.14280,R,ugm-3,5.01172,R,ugm-3
12-01-2022,14:00,1.18763,R,ugm-3,2.80520,R,ugm-3,4.62620,R,ugm-3
12-01-2022,15:00,1.21888,R,ugm-3,3.43193,R,ugm-3,5.30086,R,ugm-3
12-01-2022,16:00,2.62528,R,ugm-3,5.17884,R,ugm-3,9.20422,R,ugm-3
12-01-2022,17:00,2.21899,R,ugm-3,5.46449,R,ugm-3,8.86689,R,ugm-3
12-01-2022,18:00,5.06304,R,ugm-3,8.13935,R,ugm-3,15.90257,R,ugm-3
12-01-2022,19:00,3.15659,R,ugm-3,6.77366,R,ugm-3,11.61370,R,ugm-3
12-01-2022,20:00,1.90645,R,ugm-3,3.77517,R,ugm-3,6.69836,R,ugm-3
12-01-2022,21:00,1.56267,R,ugm-3,2.47109,R,ugm-3,4.86715,R,ugm-3
12-01-2022,22:00,1.09387,R,ugm-3,1.69603,R,ugm-3,3.37327,R,ugm-3
12-01-2022,23:00,1.21888,R,ugm-3,1.02245,R,ugm-3,2.89138,R,ugm-3
12-01-2022,24:00,1.00011,R,ugm-3,1.64704,R,ugm-3,3.18051,R,ugm-3
13-01-2022,01:00,0.93618,R,ugm-3,1.59731,R,ugm-3,3.03277,R,ugm-3
13-01-2022,02:00,0.71774,R,ugm-3,1.35458,R,ugm-3,2.45510,R,ugm-3
13-01-2022,03:00,0.99859,R,ugm-3,1.45348,R,ugm-3,2.98463,R,ugm-3
13-01-2022,04:00,0.93618,R,ugm-3,0.77895,R,ugm-3,2.21441,R,ugm-3
13-01-2022,05:00,0.65533,R,ugm-3,0.96889,R,ugm-3,1.97371,R,ugm-3
13-01-2022,06:00,0.81136,R,ugm-3,1.25918,R,ugm-3,2.50324,R,ugm-3
13-01-2022,07:00,1.12342,R,ugm-3,2.17673,R,ugm-3,3.89928,R,ugm-3
13-01-2022,08:00,0.81136,R,ugm-3,1.83685,R,ugm-3,3.08091,R,ugm-3
13-01-2022,09:00,1.40427,R,ugm-3,4.82700,R,ugm-3,6.98019,R,ugm-3
13-01-2022,10:00,2.30925,R,ugm-3,5.55752,R,ugm-3,9.09832,R,ugm-3
13-01-2022,11:00,1.56030,R,ugm-3,3.33614,R,ugm-3,5.72857,R,ugm-3
13-01-2022,12:00,1.74754,R,ugm-3,4.05997,R,ugm-3,6.73949,R,ugm-3
13-01-2022,13:00,1.77875,R,ugm-3,4.34910,R,ugm-3,7.07647,R,ugm-3
13-01-2022,14:00,1.37307,R,ugm-3,3.02952,R,ugm-3,5.13485,R,ugm-3
13-01-2022,15:00,2.37166,R,ugm-3,4.30648,R,ugm-3,7.94297,R,ugm-3
13-01-2022,16:00,5.18020,R,ugm-3,10.68702,R,ugm-3,18.62988,R,ugm-3
13-01-2022,17:00,5.02417,R,ugm-3,8.95255,R,ugm-3,16.65618,R,ugm-3
13-01-2022,18:00,3.96317,R,ugm-3,12.45684,R,ugm-3,18.53361,R,ugm-3
13-01-2022,19:00,2.05960,R,ugm-3,4.73683,R,ugm-3,7.89483,R,ugm-3
13-01-2022,20:00,1.09221,R,ugm-3,3.86131,R,ugm-3,5.53601,R,ugm-3
13-01-2022,21:00,1.68513,R,ugm-3,4.97404,R,ugm-3,7.55786,R,ugm-3
13-01-2022,22:00,1.06101,R,ugm-3,3.28335,R,ugm-3,4.91020,R,ugm-3
13-01-2022,23:00,2.46528,R,ugm-3,6.95501,R,ugm-3,10.73505,R,ugm-3
13-01-2022,24:00,1.15462,R,ugm-3,2.75469,R,ugm-3,4.52509,R,ugm-3
14-01-2022,01:00,0.84441,R,ugm-3,0.87754,R,ugm-3,2.17228,R,ugm-3
14-01-2022,02:00,0.87568,R,ugm-3,0.87786,R,ugm-3,2.22055,R,ugm-3
14-01-2022,03:00,1.18842,R,ugm-3,1.74997,R,ugm-3,3.57219,R,ugm-3
14-01-2022,04:00,0.37529,R,ugm-3,1.40375,R,ugm-3,1.97919,R,ugm-3
14-01-2022,05:00,0.90695,R,ugm-3,3.19527,R,ugm-3,4.58592,R,ugm-3
14-01-2022,06:00,1.09460,R,ugm-3,4.54883,R,ugm-3,6.22719,R,ugm-3
14-01-2022,07:00,1.09460,R,ugm-3,3.77647,R,ugm-3,5.45483,R,ugm-3
14-01-2022,08:00,15.82476,R,ugm-3,23.67059,R,ugm-3,47.93488,R,ugm-3
14-01-2022,09:00,8.50659,R,ugm-3,24.94743,R,ugm-3,37.99068,R,ugm-3
14-01-2022,10:00,10.63324,R,ugm-3,28.20344,R,ugm-3,44.50751,R,ugm-3
14-01-2022,11:00,7.13052,R,ugm-3,22.85763,R,ugm-3,33.79095,R,ugm-3
14-01-2022,12:00,2.53321,R,ugm-3,11.12863,R,ugm-3,15.01284,R,ugm-3
14-01-2022,13:00,1.31352,R,ugm-3,4.11661,R,ugm-3,6.13064,R,ugm-3
14-01-2022,14:00,1.84518,R,ugm-3,4.55650,R,ugm-3,7.38574,R,ugm-3
14-01-2022,15:00,1.28224,R,ugm-3,5.27484,R,ugm-3,7.24092,R,ugm-3
14-01-2022,16:00,1.50116,R,ugm-3,4.89089,R,ugm-3,7.19265,R,ugm-3
14-01-2022,17:00,1.62626,R,ugm-3,5.47145,R,ugm-3,7.96501,R,ugm-3
14-01-2022,18:00,1.21970,R,ugm-3,6.52929,R,ugm-3,8.39947,R,ugm-3
14-01-2022,19:00,0.84441,R,ugm-3,12.12510,R,ugm-3,13.41984,R,ugm-3
14-01-2022,20:00,1.00078,R,ugm-3,17.82289,R,ugm-3,19.35739,R,ugm-3
14-01-2022,21:00,1.31352,R,ugm-3,18.45363,R,ugm-3,20.46766,R,ugm-3
14-01-2022,22:00,1.53244,R,ugm-3,7.64276,R,ugm-3,9.99247,R,ugm-3
14-01-2022,23:00,1.34479,R,ugm-3,5.22721,R,ugm-3,7.28919,R,ugm-3
14-01-2022,24:00,1.09460,R,ugm-3,4.11438,R,ugm-3,5.79274,R,ugm-3
15-01-2022,01:00,0.68953,R,ugm-3,3.63815,R,ugm-3,4.69542,R,ugm-3
15-01-2022,02:00,0.78356,R,ugm-3,2.42903,R,ugm-3,3.63048,R,ugm-3
15-01-2022,03:00,0.68953,R,ugm-3,2.23436,R,ugm-3,3.29163,R,ugm-3
15-01-2022,04:00,0.94027,R,ugm-3,2.38237,R,ugm-3,3.82410,R,ugm-3
15-01-2022,05:00,1.19101,R,ugm-3,2.96604,R,ugm-3,4.79223,R,ugm-3
15-01-2022,06:00,1.12833,R,ugm-3,4.12709,R,ugm-3,5.85717,R,ugm-3
15-01-2022,07:00,1.53578,R,ugm-3,5.24497,R,ugm-3,7.59980,R,ugm-3
15-01-2022,08:00,0.75222,R,ugm-3,2.67072,R,ugm-3,3.82410,R,ugm-3
15-01-2022,09:00,1.06564,R,ugm-3,3.20667,R,ugm-3,4.84063,R,ugm-3
15-01-2022,10:00,1.25370,R,ugm-3,6.06474,R,ugm-3,7.98705,R,ugm-3
15-01-2022,11:00,1.06564,R,ugm-3,8.28934,R,ugm-3,9.92330,R,ugm-3
15-01-2022,12:00,4.38794,R,ugm-3,11.90836,R,ugm-3,18.63644,R,ugm-3
15-01-2022,13:00,1.62981,R,ugm-3,10.86115,R,ugm-3,13.36015,R,ugm-3
15-01-2022,14:00,7.36547,R,ugm-3,21.52594,R,ugm-3,32.81950,R,ugm-3
15-01-2022,15:00,2.06860,R,ugm-3,19.14351,R,ugm-3,22.31532,R,ugm-3
15-01-2022,16:00,6.04908,R,ugm-3,27.61049,R,ugm-3,36.88563,R,ugm-3
15-01-2022,17:00,3.57303,R,ugm-3,35.71522,R,ugm-3,41.19379,R,ugm-3
15-01-2022,18:00,2.25665,R,ugm-3,29.94022,R,ugm-3,33.40037,R,ugm-3
15-01-2022,19:00,5.89237,R,ugm-3,27.60875,R,ugm-3,36.64360,R,ugm-3
15-01-2022,20:00,3.19693,R,ugm-3,22.73813,R,ugm-3,27.64002,R,ugm-3
15-01-2022,21:00,1.91189,R,ugm-3,8.39556,R,ugm-3,11.32708,R,ugm-3
15-01-2022,22:00,1.84920,R,ugm-3,5.53889,R,ugm-3,8.37430,R,ugm-3
15-01-2022,23:00,1.75517,R,ugm-3,3.84362,R,ugm-3,6.53486,R,ugm-3